COSMOS 1275 DEB, 42145

Orbit data source: Space-Track

COSMOS 1275 DEB, 42145 is space debris in LEO originally from a launch on Thu, 04 Jun 1981 UTC launched from the Plesetsk Missile And Space Complex (PKMTR). Debris objects in space refer to the collection of defunct objects orbiting the Earth. Examples of debris include non-operational satellites, rocket bodies, and fragments generated from explosions, collisions, or faulty payload assembly.

Loading next visibility...
Identifier
42145, 1981-053RH
Orbit
LEO
Country
Flag of CISCIS
Related business
Manufacturer
Unknown
Mission
Spacecraft
Bus & Motor
Unknown
Mass
Unknown
Launch date (UTC)
1981-06-04 (45 years ago)
Launch vehicle
Unknown
Launch site
Plesetsk Missile And Space Complex (PKMTR)
Object type
Payload
Rocket body
Debris
Shape & HBR
Unknown shape, 0.1 m
Radar Cross Section
Small (<0.1 m²)

Expand to show TLE details & history
Last TLE update: 6 days ago

TLE from 6 days ago
0 COSMOS 1275 DEB
1 42145U 81053RH  26028.82678616  .00082455  00000-0  62565-2 0  9995
2 42145  83.3326 230.2473 0005805  76.7027 283.4847 15.01808386643033
Epoch: 2026-01-28T19:50Z
TLE epoch observation values (Epoch: 2026-01-28T19:50:34.324Z)
Latitude
-0.00003°
Longitude
164.51602°
Altitude
563.468 km
Speed
7.58 km/s
True Right ascension
15h 20m 59s
True Declination
0° 00' 00"
Sunlit
Object was in daylight at epoch
Visualization orbit readout
Latitude
Unknown
Longitude
Unknown
Altitude
Unknown
Speed
Unknown
Apparent Right ascension
Unknown
Apparent Declination
Unknown
Sunlit
N/A
Visualization observer readout
Local Sidereal Time
18:26:30
Azimuth
Unknown
Elevation
Unknown
Doppler factor
Unknown
Orbital elements
Apogee altitude
562.307 km
Perigee altitude
554.254 km
Semi-major axis
6,936.417 km
Eccentricity
0.00058
Inclination
83.3326°
RAAN
230.2473°
Arg. of periapsis
76.7027°
True anomaly
283.42°
Mean anomaly
283.4847°
Eccentric anomaly
283.45235°
Mean motion
3.75699 °/min
Orbital period
95.82 mins
BSTAR
0.0062565
Loading maneuver chart data...
Computing Atmospheric mass density...
Loading historical data...
Loading historical data...
Loading historical data...
Loading historical data...
Loading historical data...
Loading historical data...
Loading historical data...

Documentation

Showing up to 5 results
|